Location: Saratoga Springs
(43.0831°N, 73.7850°W)
Time: 08:28:53
(UTC-04:00)

Vanguard 2 Rocket - Pass Details

Date: 18 April 2024
Orbit: 556 x 3304 km, 32.9° (Epoch: 22 May)

Event Time Altitude Azimuth Distance (km) Brightness Sun altitude
Rises 21:39:59 0° 221° (SW) 6,058 11.1 -19.9°
Reaches altitude 10° 21:43:52 10° 214° (SW) 5,362 10.7 -20.4°
Maximum altitude 21:59:32 43° 150° (SSE) 4,055 9.6 -22.6°
Drops below altitude 10° 22:17:23 10° 89° (E) 6,089 10.7 -24.9°
Sets 22:22:07 0° 83° (E) 6,918 11.1 -25.5°
